Retour au catalogue

STARLINK-31447

ActifCommunicationsVLEO
NORAD 59302·PAYLOAD·🇺🇸 United States

Lancé Mar 24, 2024 depuis Cape Canaveral Space Force Station

Loading…

Prochains Passages (prochaines 24 heures)

TLE

FraisSource: CelesTrak SupGP

Époque: Sep 15, 2026, 02:02 UTC

1 59302C 24056G   26258.08520833 -.00022112  00000+0 -80103-3 0  2580
2 59302  42.9992 241.1154 0001347 266.6831 314.2065 15.27584777    16

Suivez STARLINK-31447 en temps réel avec AllMySat

Download on the App Store